Starlink 35632

operational
NORAD ID: 66129 Int'l Des: 2025-237 Owner: SPXS Country: US Constellation: starlink
LEOCIRCULAR

About Starlink 35632

Description loading...

Live Position

Loading 3D Globe...

Upcoming Passes

Altitude History

Altitude vs Time

uPlot chart will show altitude changes over time

Two-Line Element Set

1 66129U 25237R 25318.83334491 -.02108475 00000-0 -44258-1 0 9990
2 66129 53.1606 219.1296 0001121 110.1153 145.8829 15.48308920 4993
Epoch: Nov 14, 2025 • Age: 6 hours

Current Status

Altitude 436.0 km
Velocity 7.65 km/s
Sub-Earth Point -32.44°S, 98.13°E
Launch Date Oct 22, 2025
Age 23 days
Type internet

Technical Details

Classification Payload
Mass 575.00 kg
Dry Mass 530.00 kg
Total Mass 575.00 kg
Length 0.30 m
Diameter 4.10 m
Span 29.00 m
Shape Box + pan
Manufacturer SPXS
Bus Type Starlink V2MO
Phase Status In Orbit
Owner/State SPXS/US

Large Constellations

Loading constellations...